Berlin, NH

4:45 PM EDT on April 26, 2017 (GMT -0400)
Berlin Municipal

Weather History for KBML - February, 2002

Change the Weather History Date:

Tuesday, February 12, 2002

  Actual Average Record
Temperature  
Mean Temperature 8 °F -  
Max Temperature 30 °F 26 °F 48 °F (1999)
Min Temperature -13 °F 0 °F -24 °F (2001)
Degree Days  
Heating Degree Days 56    
Moisture  
Dew Point 10 °F    
Average Humidity 77    
Maximum Humidity 96    
Minimum Humidity 52    
Precipitation  
Precipitation 0.00 in - - ()
Sea Level Pressure  
Sea Level Pressure 29.76 in    
Wind  
Wind Speed 2 mph (SSE)    
Max Wind Speed 12 mph    
Max Gust Speed -    
Visibility 8 miles    
Events Snow    
Averages and records for this station are not official NWS values.
T = Trace of Precipitation, MM = Missing Value Source: NWS Daily Summary

Daily Weather History Graph

Daily Weather History Graph

Search for Another Location

Airport or City:

Trip Planner

Search our weather history database for the weather conditions in past years. The results will help you decide how hot, cold, wet, or windy it might be!

Date:

Astronomy

Feb. 12, 2002 Rise Set
Actual Time 6:49 AM EST 5:09 PM EST
Civil Twilight 6:19 AM EST 5:39 PM EST
Nautical Twilight 5:45 AM EST 6:13 PM EST
Astronomical Twilight 5:11 AM EST 6:47 PM EST
Moon 7:24 AM EST (2/12) 5:27 PM EST (2/12)
Length of Visible Light 11h 19m
Length of Day
10h 19m
New Moon, 0% of the Moon is Illuminated
Feb 12
New Moon
Feb 20
First Quarter
Feb 27
Full
Mar 5
Last Quarter
Mar 13
New

Hourly Weather History & Observations

Time (EST) Temp. Windchill Dew Point Humidity Pressure Visibility Wind Dir Wind Speed Gust Speed Precip Events Conditions
12:52 AM -13.0 °F - -18.0 °F 78% 30.16 in 10.0 mi Calm Calm - N/A   Clear
1:52 AM -9.9 °F -21.5 °F -15.0 °F 78% 30.15 in 10.0 mi ESE 4.6 mph - N/A   Partly Cloudy
2:52 AM -9.0 °F - -13.0 °F 83% 30.14 in 10.0 mi Calm Calm - N/A   Mostly Cloudy
3:52 AM -6.0 °F - -11.0 °F 79% 30.09 in 10.0 mi Calm Calm - N/A   Mostly Cloudy
4:52 AM -5.1 °F - -9.9 °F 80% 30.07 in 10.0 mi Calm Calm - N/A   Overcast
5:52 AM -2.9 °F - -8.0 °F 79% 30.00 in 10.0 mi Calm Calm - N/A   Overcast
6:52 AM -2.0 °F - -8.0 °F 76% 29.98 in 10.0 mi Calm Calm - N/A   Partly Cloudy
7:52 AM -2.0 °F - -7.1 °F 79% 29.96 in 10.0 mi Calm Calm - N/A   Clear
8:52 AM 1.9 °F - -5.1 °F 72% 29.90 in 10.0 mi Calm Calm - N/A   Clear
9:52 AM 3.9 °F - -2.9 °F 73% 29.82 in 10.0 mi Calm Calm - N/A   Clear
10:52 AM 10.9 °F - 1.0 °F 64% 29.82 in 10.0 mi Calm Calm - N/A   Clear
11:52 AM 18.0 °F - 3.0 °F 52% 29.75 in 10.0 mi Calm Calm - N/A   Scattered Clouds
12:52 PM 21.9 °F - 7.0 °F 53% 29.70 in 10.0 mi Calm Calm - N/A   Partly Cloudy
1:52 PM 23.0 °F 11.7 °F 10.0 °F 58% 29.67 in 10.0 mi South 11.5 mph - N/A   Overcast
2:52 PM 24.1 °F 15.2 °F 14.0 °F 65% 29.66 in 10.0 mi South 8.1 mph - N/A   Overcast
3:52 PM 24.1 °F 15.2 °F 14.0 °F 65% 29.65 in 10.0 mi South 8.1 mph - N/A   Overcast
4:52 PM 26.1 °F 19.4 °F 17.1 °F 69% 29.64 in 10.0 mi South 5.8 mph - N/A   Overcast
5:52 PM 28.0 °F 21.7 °F 19.0 °F 69% 29.63 in 10.0 mi SSE 5.8 mph - N/A   Overcast
6:52 PM 28.0 °F 22.8 °F 21.0 °F 75% 29.63 in 10.0 mi SE 4.6 mph - N/A   Overcast
7:52 PM 30.9 °F 25.2 °F 21.9 °F 69% 29.62 in 7.0 mi Variable 5.8 mph - 0.00 in Snow Light Snow
8:52 PM 30.0 °F - 24.1 °F 79% 29.62 in 7.0 mi Calm Calm - 0.00 in Snow Light Snow
9:52 PM 30.9 °F 25.2 °F 25.0 °F 79% 29.62 in 10.0 mi SSW 5.8 mph - 0.00 in   Overcast
10:19 PM 30.2 °F - 26.6 °F 86% 29.57 in 3.0 mi Calm Calm - 0.00 in Snow Light Snow
10:27 PM 30.2 °F - 26.6 °F 86% 29.57 in 2.5 mi Calm Calm - 0.00 in Snow Light Snow
10:40 PM 28.4 °F 24.6 °F 26.6 °F 93% 29.56 in 1.2 mi SE 3.5 mph - 0.00 in Snow Light Snow
10:52 PM 28.9 °F 23.9 °F 27.0 °F 92% 29.61 in 2.5 mi ESE 4.6 mph - 0.00 in Snow Light Snow
11:00 PM 28.4 °F 24.6 °F 26.6 °F 93% 29.55 in 3.0 mi SE 3.5 mph - 0.00 in Snow Light Snow
11:33 PM 28.4 °F 24.6 °F 26.6 °F 93% 29.54 in 2.5 mi Variable 3.5 mph - 0.00 in Snow Light Snow
11:40 PM 28.4 °F - 26.6 °F 93% 29.54 in 3.0 mi Calm Calm - 0.00 in Snow Light Snow
11:52 PM 28.0 °F - 27.0 °F 96% 29.60 in 5.0 mi Calm Calm - 0.00 in Snow Light Snow